Regional Weather Roundup
Issued by NWS

Home | Current Version | Previous Version | Text Only | Print | Product List | Glossary On
Versions: 1 2 3 4 5 6 7 8 9 10 11 12 13 14 15 16 17 18 19 20 21 22 23 24 25 26 27 28 29 30 31 32 33 34 35 36 37 38 39 40 41 42 43 44 45 46 47 48 49 50
000
ASUS44 KFWD 042301
RWRTX
NORTH TEXAS HOURLY WEATHER ROUNDUP
NATIONAL WEATHER SERVICE FORT WORTH TX
600 PM CDT FRI SEP 04 2015

NOTE: "FAIR" INDICATES FEW OR NO CLOUDS BELOW 12,000 FEET WITH NO
SIGNIFICANT WEATHER AND/OR OBSTRUCTIONS TO VISIBILITY.

TXZ118-119-050000-
DALLAS/FORT WORTH METROPLEX

CITY           SKY/WX    TMP DP  RH WIND       PRES   REMARKS
DFW AIRPORT    PTSUNNY   95  66  38 E8        29.88F HX  98
DALLAS LOVE    PTSUNNY   94  66  39 E9        29.89R HX  97
FTW MEACHAM    MOSUNNY   96  66  37 E13       29.88S HX  99
DAL-EXECUTIVE  MOSUNNY   94  66  39 SE7       29.89S HX  97
FTW-ALLIANCE   PTSUNNY   93  65  39 SE9       29.89S HX  95
FTW-NAS-JRB    PTSUNNY   96  65  35 S12       29.88F HX  98
FTW-SPINKS     MOSUNNY   93  64  38 SE8       29.90S HX  95
ARLINGTON      MOSUNNY   95  65  37 SE9       29.89S HX  97
MESQUITE       MOSUNNY   93  66  40 SE5       29.90F HX  96
LANCASTER      PTSUNNY   94  65  38 E7        29.90S HX  95
$$

TXZ091>094-102>105-117-120-121-131>134-050000-
NORTH CENTRAL TEXAS

CITY           SKY/WX    TMP DP  RH WIND       PRES   REMARKS
SHRMAN/DENISON MOSUNNY   95  68  40 E10       29.91S HX 100
BRIDGEPORT     SUNNY     94  67  41 S7        29.90S HX  98
DENTON         SUNNY     94  67  41 SE9       29.88F HX  97
MCKINNEY       SUNNY     93  66  40 SE8       29.90S HX  96
ROCKWALL       PTSUNNY   92  68  45 S6        29.89S HX  95
TERRELL        PTSUNNY   93  68  43 E8        29.90F HX  97
WAXAHACHIE     MOSUNNY   94  67  41 S9        29.91S HX  98
$$

TXZ083>090-098>101-113>116-127>130-139>142-154-155-050000-
WESTERN NORTH TEXAS

CITY           SKY/WX    TMP DP  RH WIND       PRES   REMARKS
WICHITA FALLS  MOSUNNY   95  64  35 SE10G18   29.87S HX  97
WF-KICKAPOO    MOSUNNY   96  61  31 SE13      29.88S HX  96
VERNON         MOSUNNY   97  51  20 SE13      29.87F HX  94
ABILENE        SUNNY     95  61  32 SE9G18    29.89F HX  95
ABILENE-DYESS  MOSUNNY   96  62  33 E9        29.88S HX  96
MINERAL WELLS  MOSUNNY   93  68  43 S9        29.88S HX  97
STEPHENVILLE   SUNNY     93  63  36 SE7       29.93F HX  94
COMANCHE       PTSUNNY   95  65  36 E9        29.89F HX  97
$$

TXZ143>147-156>162-174-175-050000-
CENTRAL TEXAS

CITY           SKY/WX    TMP DP  RH WIND       PRES   REMARKS
WACO           MOSUNNY   96  64  34 SE9       29.87F HX  98
WACO-TSTC      MOSUNNY   95  64  36 S8        29.87F HX  97
WACO-MCGREGOR  SUNNY     96  67  38 SE10      29.87F HX 100
CORSICANA      MOSUNNY   94  66  39 S3        29.90S HX  97
MEXIA          MOSUNNY   94  68  41 E13       29.88S HX  98
TEMPLE         SUNNY     93  66  40 E9        29.88S HX  96
KILLEEN        SUNNY     94  66  39 SE14      29.87F HX  96
KILLEEN-SKYLRK SUNNY     93  66  40 SE8       29.87F HX  96
FORT HOOD      SUNNY     94  67  41 SE12      29.87F HX  97
HAMILTON       MOSUNNY   94  60  32 SE8       29.91R HX  93
$$

TXZ095>097-106>112-122>126-135>138-148>153-164>167-050000-
EAST TEXAS

CITY           SKY/WX    TMP DP  RH WIND       PRES   REMARKS
PARIS          SUNNY     93  64  38 S13G18    29.91F HX  95
GILMER         MOSUNNY   90  68  48 E5        29.92F HX  94
MINEOLA        MOSUNNY   91  66  43 S6        29.92F HX  94
TYLER          MOSUNNY   93  70  46 N5        29.92S HX  99
LONGVIEW       FAIR      93  70  46 SE5       29.91S HX  99
ATHENS         MOSUNNY   91  68  46 E3        29.89S HX  95
PALESTINE      CLOUDY    91  71  51 SE6       29.91S HX  97
JACKSONVILLE   CLOUDY    89  68  49 SE8G16    29.94S HX  93
NACOGDOCHES    MOSUNNY   90  72  55 S7        29.92S HX  96
LUFKIN         CLOUDY    88  72  58 S8        29.92R HX  94
$$

SUPPLEMENTAL OBSERVATIONS (CENTRAL)

CITY           SKY/WX    TMP DP  RH WIND       PRES   REMARKS
$$

SUPPLEMENTAL OBSERVATIONS (WEST)

CITY           SKY/WX    TMP DP  RH WIND       PRES   REMARKS
$$

SUPPLEMENTAL OBSERVATIONS (EAST)

CITY           SKY/WX    TMP DP  RH WIND       PRES   REMARKS
$$

SUPPLEMENTAL OBSERVATIONS ARE A COLLECTION OF AUTOMATED INSTRUMENTS
THAT ARE MAINTAINED BY A VARIETY OF FEDERAL AND STATE AGENCIES.
CERTAIN ELEMENTS...SUCH AS HUMIDITY VALUES AND SUSTAINED WIND
SPEEDS...MAY BE APPROXIMATED.



USA.gov is the U.S. government's official web portal to all federal, state and local government web resources and services.